Regional Weather Roundup
Issued by NWS

Home | Current Version | Previous Version | Text Only | Print | Product List | Glossary Off
Versions: 1 2 3 4 5 6 7 8 9 10 11 12 13 14 15 16 17 18 19 20 21 22 23 24 25 26 27 28 29 30 31 32 33 34 35 36 37 38 39 40 41 42 43 44 45 46 47 48 49 50

641
ASUS43 KFSD 281402
RWRSD

WEATHER ROUNDUP FOR SOUTH DAKOTA
NATIONAL WEATHER SERVICE SIOUX FALLS SD
900 AM CDT SAT MAY 28 2016

NOTE: "FAIR" INDICATES FEW OR NO CLOUDS BELOW 12,000 FEET WITH NO
SIGNIFICANT WEATHER AND/OR OBSTRUCTIONS TO VISIBILITY.


SDZ001>005-009-010-012>017-281500-
NORTHWEST AND NORTH CENTRAL SOUTH DAKOTA

CITY           SKY/WX    TMP DP  RH WIND       PRES   REMARKS
BUFFALO          N/A     58  48  69 CALM      29.83R
FAITH            N/A     59  50  72 W5        29.88R
MOBRIDGE       MOSUNNY   61  52  72 NW8       29.82R
$$

SDZ012>016-024>037-041>051-057-063-072>074-281500-
SOUTHWEST AND SOUTH CENTRAL SOUTH DAKOTA

CITY           SKY/WX    TMP DP  RH WIND       PRES   REMARKS
RAPID CTY ARPT SUNNY     61  47  59 CALM      29.90S
PIERRE         CLOUDY    59  54  83 NW10      29.82R
CUSTER         SUNNY     55  41  59 VRB3      29.96R
ELLSWORTH AFB  SUNNY     59  49  68 CALM      29.90R
PHILIP         CLOUDY    51  49  92 W6        29.87R
PINE RIDGE     SUNNY     53  47  79 CALM      29.91R
WINNER         CLOUDY    59  54  83 NW8       29.84R
$$

SDZ004>011-016>023-039-040-281500-
NORTHEAST SOUTH DAKOTA

CITY           SKY/WX    TMP DP  RH WIND       PRES   REMARKS
ABERDEEN       CLOUDY    62  59  90 NE9       29.81R FOG
WATERTOWN      LGT RAIN  60  57  89 NE9       29.80R
BROOKINGS      RAIN      60  59  96 E8        29.77S
SISSETON         N/A     65  56  72 E9        29.79S
$$

SDZ017-020-022-023-036>040-048>070-281500-
SOUTHEAST SOUTH DAKOTA

CITY           SKY/WX    TMP DP  RH WIND       PRES   REMARKS
SIOUX FALLS    LGT RAIN  61  59  93 E6        29.75S FOG
HURON          CLOUDY    60  59  96 N8        29.79R
MITCHELL       RAIN      60  59  96 N8        29.78R FOG
YANKTON        CLOUDY    63  57  82 NW17      29.74R
$$

ABBREVIATIONS USED IN REMARKS
   TC - TEMPERATURE IN CELSIUS
  WCI - WIND CHILL INDEX
   HX - HEAT INDEX
  VSB - VISIBILITY





USA.gov is the U.S. government's official web portal to all federal, state and local government web resources and services.